Location: Catstown
(52.4386°N, 7.2633°W)
Time: 13:37:40
(UTC+00:00)

Cosmos 2227 - Pass Details

Date: 18 September 2020
Orbit: 836 x 859 km, 71.0° (Epoch: 25 October)

Event Time Altitude Azimuth Distance (km) Brightness Sun altitude
Rises 19:41:03 0° 209° (SSW) 3,421 7.5 -10.6°
Reaches altitude 10° 19:43:30 10° 210° (SSW) 2,487 6.8 -10.9°
Maximum altitude 19:49:14 89° 295° (WNW) 862 4.3 -11.8°
Drops below altitude 10° 19:54:59 10° 31° (NNE) 2,489 6.5 -12.6°
Sets 19:57:26 0° 32° (NNE) 3,425 7.2 -13.0°
